Bonaire, Netherlands

2:21 PM AST on April 28, 2017 (GMT -0400)
Flamingo

Weather History for TNCB - September, 2012

Change the Weather History Date:

Monday, September 10, 2012

  Actual Average Record
Temperature  
Mean Temperature 86 °F -  
Max Temperature 89 °F 89 °F 93 °F (1996)
Min Temperature 82 °F 82 °F 75 °F (2008)
Cooling Degree Days 20    
Growing Degree Days 36 (Base 50)    
Moisture  
Dew Point 76 °F    
Average Humidity 71    
Maximum Humidity 84    
Minimum Humidity 55    
Precipitation  
Precipitation 0.00 in - - ()
Sea Level Pressure  
Sea Level Pressure 29.94 in    
Wind  
Wind Speed 12 mph ()    
Max Wind Speed 18 mph    
Max Gust Speed -    
Visibility 8.2 miles    
Events      
Averages and records for this station are not official NWS values.
T = Trace of Precipitation, MM = Missing Value Source: Averaged Metar Reports

Daily Weather History Graph

Daily Weather History Graph

Search for Another Location

Airport or City:

Trip Planner

Search our weather history database for the weather conditions in past years. The results will help you decide how hot, cold, wet, or windy it might be!

Date:

Astronomy

Sep. 10, 2012 Rise Set
Actual Time 6:22 AM AST 6:37 PM AST
Civil Twilight 6:01 AM AST 6:58 PM AST
Nautical Twilight 5:36 AM AST 7:23 PM AST
Astronomical Twilight 5:11 AM AST 7:47 PM AST
Moon 1:23 AM AST (9/10) 2:23 PM AST (9/10)
Length of Visible Light 12h 57m
Length of Day
12h 14m
Waning Crescent, 30% of the Moon is Illuminated
Sep 10
Waning Crescent
Sep 15
New
Sep 22
First Quarter
Sep 29
Full
Oct 8
Last Quarter

Hourly Weather History & Observations

Time (AST) Temp. Heat Index Dew Point Humidity Pressure Visibility Wind Dir Wind Speed Gust Speed Precip Events Conditions
1:00 AM 82.4 °F 90.9 °F 77.0 °F 84% 29.95 in 6.2 mi North - - N/A   Partly Cloudy
2:00 AM 83 °F - 76 °F 74%  in - East 13.8 mph - -   Clear
2:00 AM 82.4 °F 90.9 °F 77.0 °F 84% 29.92 in - East 12.7 mph - N/A   Unknown
3:00 AM 82.4 °F 89.5 °F 75.2 °F 79% 29.92 in - East 13.8 mph - N/A   Unknown
4:00 AM 82.4 °F 89.5 °F 75.2 °F 79% 29.92 in - East 13.8 mph - N/A   Unknown
5:00 AM 83 °F - 75 °F 72%  in - East 13.8 mph - -   Clear
5:00 AM 82.4 °F 89.5 °F 75.2 °F 79% 29.92 in - East 13.8 mph - N/A   Unknown
6:00 AM 82.4 °F 89.5 °F 75.2 °F 79% 29.92 in - East 11.5 mph - N/A   Unknown
7:00 AM 84.2 °F 94.1 °F 77.0 °F 79% 29.95 in - East 9.2 mph - N/A   Unknown
8:00 AM 87 °F - 77 °F 66% 29.98 in 19 mi ESE 13.8 mph - -   Partly Cloudy
8:00 AM 87.8 °F 99.7 °F 77.0 °F 70% 29.98 in 6.2 mi East 15.0 mph - N/A   Scattered Clouds
9:00 AM 87.8 °F 99.7 °F 77.0 °F 70% 29.98 in 6.2 mi ESE 16.1 mph - N/A   Scattered Clouds
10:00 AM 87.8 °F 97.6 °F 75.2 °F 66% 29.98 in 6.2 mi ESE 16.1 mph - N/A   Scattered Clouds
11:00 AM 89 °F - 75 °F 55%  in 6 mi ESE 16.1 mph - -   Clear
11:00 AM 87.8 °F 97.6 °F 75.2 °F 66% 29.98 in - North - - N/A   Unknown
12:00 PM 89.6 °F 99.8 °F 75.2 °F 62% 29.95 in - North - - N/A   Unknown
1:00 PM 89.6 °F 98.2 °F 73.4 °F 59% 29.95 in 6.2 mi ESE 18.4 mph - N/A   Scattered Clouds
3:00 PM 89.6 °F 102.2 °F 77.0 °F 66% 29.89 in 6.2 mi ESE 13.8 mph - N/A   Scattered Clouds
4:00 PM 87.8 °F 97.6 °F 75.2 °F 66% 29.89 in 6.2 mi East 15.0 mph - N/A   Scattered Clouds
5:00 PM 88 °F - 77 °F 62% 29.89 in 19 mi East 13.8 mph - -   Scattered Clouds
5:00 PM 87.8 °F 99.7 °F 77.0 °F 70% 29.89 in 6.2 mi East 12.7 mph - N/A   Partly Cloudy
6:00 PM 86.0 °F 95.1 °F 75.2 °F 70% 29.89 in 6.2 mi East 12.7 mph - N/A   Partly Cloudy
8:00 PM 84.2 °F 92.3 °F 75.2 °F 74% 29.92 in 6.2 mi East 10.4 mph - N/A   Partly Cloudy
10:00 PM 84.2 °F 92.3 °F 75.2 °F 74% 29.95 in - North - - N/A   Unknown
11:00 PM 82.4 °F 89.5 °F 75.2 °F 79% 29.95 in - North - - N/A   Unknown